Simultaneous Nadir Overpasses (SNOs) Predictions

Prediction of SNOs between GOES-16 and TERRA Satellite Orbit:

Table of predicted SNOs for the next 14.0 days since TLE Epoch: 9/28/2024
Index Date Time (GOES-16) GOES-16 Lat,Lon TERRA Lat,Lon Distance(km) Time Diff (sec)
1 09/28/2024 14:28:56 -0.06, -75.21 -0.78, -71.86 381.65 80
2 09/29/2024 02:46:13 0.06, -75.20 -0.28, -76.70 171.74 80
3 10/01/2024 02:31:04 0.06, -75.22 0.65, -72.41 318.68 80
4 10/01/2024 14:50:52 -0.06, -75.24 0.34, -77.23 225.91 80
5 10/03/2024 14:30:22 -0.06, -75.26 -0.58, -72.93 265.58 80
6 10/04/2024 02:50:19 0.06, -75.25 -0.45, -77.78 287.17 80
7 10/06/2024 02:35:07 0.06, -75.28 0.41, -73.47 205.19 80
8 10/06/2024 14:54:55 -0.06, -75.31 0.57, -78.29 339.06 80
9 10/08/2024 14:34:23 -0.06, -75.34 -0.33, -73.98 153.76 80
10 10/09/2024 02:54:19 0.06, -75.33 -0.65, -78.84 398.59 80
11 10/11/2024 02:39:06 0.05, -75.36 0.20, -74.51 95.06 80
12 10/11/2024 14:58:53 -0.05, -75.38 0.78, -79.34 448.91 80
